Powrót do katalogu

COSMOS 1197

AktywnyMilitariaLEO
NORAD 11880·PAYLOAD·🇷🇺 Russia

Wystrzelony Jul 9, 1980 z Plesetsk Cosmodrome

Loading…

Następne Przeloty (najbliższe 24 godziny)

TLE

ŚwieżeSource: Space-Track

Epoka: Sep 14, 2026, 13:16 UTC

1 11880U 80058F   26257.55286722 -.00000006  00000-0  68883-4 0  9992
2 11880  74.0221   5.1003 0013917 289.1581  70.7961 12.46012557100666

Śledź COSMOS 1197 w czasie rzeczywistym z AllMySat

Download on the App Store